Location: Unspecified
(0.0000°N, 1.0000°E)
Time: 11:33:08
(UTC+01:00)

Daily predictions for brighter satellites

Satellite Brightness Start Highest point End
(mag) Time Altitude Azimuth Time Altitude Azimuth Time Altitude Azimuth
Ariane H10 4.5 18:42:03 10° W 18:46:35 73° N 19:18:12 10° E
BLOCK DM-SL R/B 2.3 19:03:19 10° W 19:05:57 78° N 19:16:24 10° E
Meteor 1-23 Rocket 4.3 19:02:41 10° S 19:08:28 68° E 19:14:09 10° NNE
COSMOS 2441 4.4 19:05:53 10° SSE 19:10:39 60° ENE 19:15:25 10° N
BREEZE-M DEB 3.4 19:09:47 10° S 19:11:43 25° ESE 19:14:54 10° ENE
Cosmos 1484 Rocket 2.9 19:10:37 10° SSE 19:14:22 50° E 19:18:02 10° N
IDEFIX/ARIANE 42P 3.4 19:09:42 10° S 19:14:50 58° WSW 19:19:56 10° NNW
Meteor 2-4 Rocket 3.9 19:13:10 10° S 19:18:44 75° W 19:24:06 10° N
Cosmos 494 Rocket 4.0 19:14:09 10° N 19:19:25 82° E 19:24:40 10° SSE
Intelsat 5-3 Rocket 2.9 19:13:03 10° WNW 19:20:43 59° NNE 19:24:01 10° E
ARIANE 42L R/B 2.5 19:21:12 10° W 19:24:03 89° SSE 19:30:22 10° E
Cosmos 2369 Rocket 2.4 19:18:39 10° S 19:24:06 53° ESE 19:29:34 10° NNE
Cosmos 1452 Rocket 3.5 19:22:57 10° S 19:28:09 63° ESE 19:33:18 10° NNE
Cosmos 1975 4.1 19:25:23 10° NNW 19:29:12 44° W 19:33:01 10° SSW
Helios 1B rocket 3.0 19:25:50 10° NNE 19:29:39 38° ESE 19:33:29 10° S
Cosmos 1743 2.8 19:27:58 10° N 19:31:41 51° E 19:35:25 10° SSE
Intercosmos 25 3.8 19:28:34 10° N 19:32:28 70° E 19:38:34 10° S
Resurs 01 Rocket 3.5 19:32:13 10° ESE 19:33:11 12° E 19:33:11 12° E
ARIANE 5 DEB (SYLDA) 2.5 19:33:07 10° W 19:35:32 76° N 19:40:49 12° E
Milstar 3 4.2 19:31:17 10° SSW 19:37:58 37° SE 19:46:46 14° E
COSMOS 2487 2.6 19:35:48 10° N 19:39:16 49° ENE 19:42:44 10° SSE
Cosmos 1892 Rocket 3.8 19:35:42 10° S 19:40:00 71° W 19:44:19 10° N
ATLAS 5 CENTAUR R/B 4.4 19:33:49 10° WNW 19:40:45 38° N 20:02:49 19° ENE
ATLAS 5 CENTAUR R/B 4.4 19:33:49 10° WNW 19:40:45 38° N 20:02:51 19° ENE
Cosmos 1934 Rocket 4.2 19:40:05 10° NNE 19:46:06 48° E 19:52:10 10° SSE
Meteor 1-29 3.1 19:45:42 16° NNE 19:48:18 53° E 19:51:44 10° S
Cosmos 1535 Rocket 4.4 19:43:02 10° N 19:49:11 70° E 19:55:16 10° S
Cosmos 1626 Rocket 3.9 19:49:17 10° SSE 19:53:28 42° E 19:55:54 22° NE
H-2A ROCKET BODY 4.1 18:54:15 10° WSW 19:57:11 80° SSE 20:03:08 24° ENE
Hubble Space Telescope 1.1 19:53:14 10° NW 19:57:11 43° NNE 19:58:30 32° ENE
Ariane H10+ 2.7 19:58:56 10° WSW 19:59:45 20° SW 19:59:45 20° SW
NOAA 12 4.0 19:55:39 10° SSE 20:00:58 75° ENE 20:06:14 10° N
Cosmos 1943 Rocket 2.3 19:59:42 10° S 20:05:11 54° ESE 20:07:52 29° NE
Cosmos 405 Rocket 4.4 20:03:22 10° SSE 20:05:24 20° ESE 20:05:24 20° ESE
Timation 2 Rocket 4.2 20:01:00 10° N 20:07:42 57° ENE 20:14:15 10° SSE
Cosmos 1726 Rocket 3.5 20:09:15 22° N 20:12:02 62° E 20:16:27 10° SSE
Cosmos 1821 Rocket 4.3 20:08:27 10° NNW 20:14:28 66° W 20:20:35 10° S
METEOR-M 4.1 20:10:30 10° SSE 20:15:51 89° WSW 20:21:12 10° NNW
Spot 2 Rocket 3.5 20:15:33 10° SSE 20:20:32 54° ENE 20:21:53 41° NNE
Meteor 2-15 4.4 20:15:05 10° S 20:21:07 60° E 20:23:35 35° NNE
FengYun 1-2 T 4.3 20:16:01 10° SSE 20:21:28 54° ENE 20:23:59 31° NNE
Cosmos 1000 Rocket 4.4 20:15:42 10° S 20:21:43 59° E 20:24:01 37° NNE
Cosmos 1420 Rocket 4.5 20:16:40 10° SSW 20:21:54 60° WNW 20:25:40 19° N
SWIFT 3.7 20:21:18 10° SW 20:24:53 27° SSE 20:25:17 26° SSE
Cosmos 1605 Rocket 3.8 20:19:00 10° N 20:25:09 75° E 20:31:15 10° S
SJ-6B 4.0 20:23:43 10° S 20:27:20 40° WSW 20:30:53 10° NNW
Cosmos 1606 Rocket 4.2 20:25:52 10° NNW 20:30:13 54° W 20:34:34 10° S
SAR-Lupe-4 3.9 20:26:59 10° S 20:30:04 60° SSW 20:30:04 60° SSW
Cosmos 1066 Rocket 4.2 20:27:24 10° S 20:33:05 79° W 20:35:43 32° N
ALOS 2.3 20:37:17 10° SSE 20:41:23 69° SSE 20:41:23 69° SSE
DELTA 2 R/B (1) 4.2 20:39:39 10° WSW 20:44:58 45° NW 20:45:38 43° NNW
ATLAS 2AS CENTAUR R/B 4.5 20:41:32 10° NW 20:47:42 30° WSW 20:53:25 10° S
Cosmos 1833 Rocket 2.8 20:42:24 10° NNW 20:47:59 73° WSW 20:53:35 10° S
Cosmos 2082 Rocket 2.8 20:44:52 10° NNW 20:50:24 55° WSW 20:55:59 10° S
Cosmos 2058 Rocket 4.3 20:58:50 38° W 20:58:50 38° W 21:02:55 10° SSW
ARIANE 44LP R/B 3.9 20:49:27 10° W 20:58:05 57° W 20:58:05 57° W
Lacrosse 4 Rocket 3.3 21:00:40 10° SSW 21:02:52 29° SSW 21:02:52 29° SSW
Resurs 01 Rocket 3.5 21:06:26 10° SSW 21:10:11 28° WSW 21:10:45 27° W
Spelda 4.3 21:06:03 10° W 21:13:06 39° WNW 21:13:06 39° WNW
Milstar 3 4.4 22:13:13 10° WSW 22:20:20 55° WNW 22:20:20 55° WNW
CZ-3C R/B 4.3 22:30:58 10° WSW 22:40:05 29° WSW 22:40:05 29° WSW
